DW1973 Weather Reports


Display with metric or nautical units.
time (UTC)temp
F
wind
direction
speed
MPH
gust
MPH
rain 1hr
in
rain 24hr
in
rain mn
in
humidity
%
barometer
mb
20260906152927 76 76 2.0 6.0 0.00 0.00 0.00 73 1019.3
20260906152414 76 121 2.0 6.0 0.00 0.00 0.00 74 1019.4
20260906151921 76 333 2.0 4.0 0.00 0.00 0.00 74 1019.5
20260906151432 76 331 1.0 3.0 0.00 0.00 0.00 76 1019.5
20260906150918 76 44 1.0 4.0 0.00 0.00 0.00 77 1019.5
20260906150425 76 59 1.0 5.0 0.00 0.00 0.00 77 1019.5
20260906145918 75 29 2.0 5.0 0.00 0.00 0.00 78 1019.5
20260906145428 75 21 1.0 4.0 0.00 0.00 0.00 78 1019.4
20260906144934 75 32 0.0 4.0 0.00 0.00 0.00 77 1019.5
20260906144445 76 59 2.0 4.0 0.00 0.00 0.00 77 1019.5
20260906143929 76 13 1.0 4.0 0.00 0.00 0.00 78 1019.5
20260906143418 75 37 0.0 4.0 0.00 0.00 0.00 79 1019.7
20260906142945 75 22 0.0 2.0 0.00 0.00 0.00 80 1019.5
20260906142432 75 27 0.0 3.0 0.00 0.00 0.00 80 1019.5
20260906141938 75 35 0.0 5.0 0.00 0.00 0.00 79 1019.5
20260906141429 76 360 0.0 3.0 0.00 0.00 0.00 80 1019.5
20260906140916 76 24 0.0 3.0 0.00 0.00 0.00 81 1019.4
20260906140423 75 46 1.0 3.0 0.00 0.00 0.00 81 1019.3
20260906135913 75 53 0.0 3.0 0.00 0.00 0.00 82 1019.3
20260906135420 74 360 1.0 3.0 0.00 0.00 0.00 84 1019.3
20260906134925 73 72 1.0 6.0 0.00 0.00 0.00 85 1019.2
20260906134417 72 79 1.0 3.0 0.00 0.00 0.00 86 1019.3
20260906133925 72 22 1.0 5.0 0.00 0.00 0.00 89 1019.3
20260906133414 72 23 0.0 5.0 0.00 0.00 0.00 89 1019.2
20260906132924 72 59 1.0 2.0 0.00 0.00 0.00 89 1019.2
20260906132427 72 5 0.0 2.0 0.00 0.00 0.00 90 1019.2
20260906131915 71 69 0.0 4.0 0.00 0.00 0.00 91 1019.1
20260906131428 71 38 1.0 4.0 0.00 0.00 0.00 92 1019.2
20260906130917 71 5 1.0 3.0 0.00 0.00 0.00 93 1019.1
20260906130425 71 45 0.0 3.0 0.00 0.00 0.00 93 1019.2
20260906125914 70 11 0.0 2.0 0.00 0.00 0.00 94 1019.3
20260906125422 70 11 1.0 2.0 0.00 0.00 0.00 94 1019.2
20260906124929 70 9 0.0 2.0 0.00 0.00 0.00 94 1019.1
20260906124422 70 9 0.0 0.0 0.00 0.00 0.00 94 1019.1
20260906123929 69 9 0.0 0.0 0.00 0.00 0.00 94 1019.2
20260906123414 69 11 0.0 0.0 0.00 0.00 0.00 94 1019.2
20260906122925 69 11 0.0 0.0 0.00 0.00 0.00 94 1019.1
20260906122414 69 11 0.0 0.0 0.00 0.00 0.00 94 1019.0
20260906121924 69 11 0.0 0.0 0.00 0.00 0.00 94 1018.9
20260906121415 69 11 0.0 0.0 0.00 0.00 0.00 94 1018.9
20260906120948 69 12 0.0 0.0 0.00 0.00 0.00 94 1018.8
20260906120437 69 12 0.0 0.0 0.00 0.00 0.00 93 1018.7
20260906115929 68 12 0.0 0.0 0.00 0.00 0.00 93 1018.6
20260906115418 68 12 0.0 2.0 0.00 0.00 0.00 93 1018.5
20260906114927 68 13 0.0 2.0 0.00 0.00 0.00 93 1018.5
20260906114420 68 12 0.0 0.0 0.00 0.00 0.00 93 1018.5
20260906113929 68 12 0.0 0.0 0.00 0.00 0.00 93 1018.4
20260906113437 69 11 0.0 0.0 0.00 0.00 0.00 93 1018.4
20260906112947 68 11 0.0 0.0 0.00 0.00 0.00 93 1018.3
20260906112431 69 11 0.0 0.0 0.00 0.00 0.00 93 1018.0
20260906111921 69 11 0.0 0.0 0.00 0.00 0.00 93 1017.9
20260906111443 69 11 0.0 0.0 0.00 0.00 0.00 93 1017.9
20260906110928 69 11 0.0 0.0 0.00 0.00 0.00 93 1017.9
20260906110417 69 11 0.0 0.0 0.00 0.00 0.00 93 1017.9
20260906105930 69 11 0.0 0.0 0.00 0.00 0.00 93 1017.9
20260906105420 69 11 0.0 0.0 0.00 0.00 0.00 93 1017.8
20260906104927 69 11 0.0 0.0 0.00 0.00 0.00 93 1017.6
20260906104455 69 11 0.0 0.0 0.00 0.00 0.00 93 1017.5
20260906103941 69 11 0.0 0.0 0.00 0.00 0.00 93 1017.4
20260906103430 69 11 0.0 0.0 0.00 0.00 0.00 93 1017.5
20260906102918 69 11 0.0 0.0 0.00 0.00 0.00 92 1017.5
20260906102449 69 11 0.0 0.0 0.00 0.00 0.00 92 1017.5
20260906101916 69 11 0.0 0.0 0.00 0.00 0.00 92 1017.5
20260906101427 69 11 0.0 0.0 0.00 0.00 0.00 92 1017.5
20260906100918 69 11 0.0 0.0 0.00 0.00 0.00 92 1017.6
20260906100425 69 11 0.0 0.0 0.00 0.00 0.00 92 1017.5
20260906095917 69 11 0.0 0.0 0.00 0.00 0.00 91 1017.4
20260906095426 69 11 0.0 0.0 0.00 0.00 0.00 92 1017.4
20260906094915 69 11 0.0 0.0 0.00 0.00 0.00 91 1017.4
20260906094426 69 11 0.0 0.0 0.00 0.00 0.00 91 1017.3
20260906093914 70 11 0.0 0.0 0.00 0.00 0.00 91 1017.3
20260906093422 70 12 0.0 0.0 0.00 0.00 0.00 91 1017.4
20260906092914 70 12 0.0 0.0 0.00 0.00 0.00 91 1017.3
20260906092422 70 12 0.0 0.0 0.00 0.00 0.00 91 1017.3
20260906091930 70 11 0.0 0.0 0.00 0.00 0.00 91 1017.3
20260906091416 70 11 0.0 0.0 0.00 0.00 0.00 91 1017.3
20260906090954 70 11 0.0 0.0 0.00 0.00 0.00 91 1017.2
20260906090424 70 11 0.0 0.0 0.00 0.00 0.00 90 1017.2
20260906085917 70 11 0.0 1.0 0.00 0.00 0.00 90 1017.2
20260906085426 70 11 0.0 1.0 0.00 0.00 0.00 90 1017.2
20260906084915 70 12 0.0 1.0 0.00 0.00 0.00 90 1017.3
20260906084425 71 11 0.0 1.0 0.00 0.00 0.00 90 1017.3
20260906083915 71 12 0.0 1.0 0.00 0.00 0.00 90 1017.2
20260906083424 71 11 0.0 1.0 0.00 0.00 0.00 89 1017.3
20260906082932 71 11 0.0 1.0 0.00 0.00 0.00 89 1017.2
20260906082419 71 11 0.0 1.0 0.00 0.00 0.00 89 1017.2
20260906081930 71 9 0.0 1.0 0.00 0.00 0.00 89 1017.1
20260906081421 71 9 0.0 0.0 0.00 0.00 0.00 89 1017.2
20260906080924 72 9 0.0 2.0 0.00 0.00 0.00 89 1017.3
20260906080431 72 9 0.0 2.0 0.00 0.00 0.00 89 1017.5
20260906075922 72 5 0.0 3.0 0.00 0.00 0.00 89 1017.5
20260906075430 72 5 0.0 3.0 0.00 0.00 0.00 89 1017.4
20260906074919 72 360 0.0 3.0 0.00 0.00 0.00 89 1017.4
20260906074430 72 12 0.0 3.0 0.00 0.00 0.00 89 1017.4
20260906073938 72 11 1.0 3.0 0.00 0.00 0.00 88 1017.4
20260906073426 72 15 1.0 2.0 0.00 0.00 0.00 88 1017.5
20260906072918 72 55 0.0 5.0 0.00 0.00 0.00 88 1017.4
20260906072427 72 5 2.0 5.0 0.00 0.00 0.00 88 1017.4
20260906071916 72 61 1.0 3.0 0.00 0.00 0.00 88 1017.4
20260906071444 72 13 0.0 2.0 0.00 0.00 0.00 88 1017.4
20260906070925 72 14 1.0 3.0 0.00 0.00 0.00 88 1017.5
20260906070432 72 16 0.0 4.0 0.00 0.00 0.00 88 1017.6
20260906065921 72 360 1.0 4.0 0.00 0.00 0.00 88 1017.6
20260906065430 72 12 0.0 3.0 0.00 0.00 0.00 88 1017.5
20260906064916 72 10 1.0 3.0 0.00 0.00 0.00 88 1017.5
20260906064445 72 20 0.0 3.0 0.00 0.00 0.00 88 1017.4
20260906063932 72 13 1.0 3.0 0.00 0.00 0.00 88 1017.5
20260906063421 72 9 0.0 3.0 0.00 0.00 0.00 87 1017.5
20260906062930 72 13 1.0 4.0 0.00 0.00 0.00 87 1017.4
20260906062420 72 360 1.0 4.0 0.00 0.00 0.00 87 1017.4
20260906061928 72 17 0.0 2.0 0.00 0.00 0.00 87 1017.4
20260906061438 73 20 1.0 6.0 0.00 0.00 0.00 87 1017.4
20260906060922 73 360 1.0 6.0 0.00 0.00 0.00 87 1017.4
20260906060429 73 13 0.0 2.0 0.00 0.00 0.00 87 1017.4
20260906055917 73 18 0.0 3.0 0.00 0.00 0.00 87 1017.3
20260906055454 73 17 0.0 3.0 0.00 0.00 0.00 87 1017.4
20260906054941 73 21 0.0 0.0 0.00 0.00 0.00 87 1017.4
20260906054454 73 25 0.0 4.0 0.00 0.00 0.00 87 1017.3
20260906053943 73 5 1.0 4.0 0.00 0.00 0.00 87 1017.3
20260906053429 73 11 1.0 3.0 0.00 0.00 0.00 87 1017.4
20260906052938 73 10 0.0 0.0 0.00 0.00 0.00 87 1017.2
20260906052443 73 12 0.0 1.0 0.00 0.00 0.00 87 1017.2
20260906051924 73 14 0.0 2.0 0.00 0.00 0.00 87 1017.3
20260906051415 73 14 0.0 4.0 0.00 0.00 0.00 87 1017.2
20260906050924 73 13 1.0 4.0 0.00 0.00 0.00 87 1017.3
20260906050434 73 15 1.0 4.0 0.00 0.00 0.00 87 1017.2
20260906045914 73 12 1.0 4.0 0.00 0.00 0.00 87 1017.2
20260906045423 73 9 1.0 4.0 0.00 0.00 0.00 87 1017.2
20260906044932 73 9 1.0 4.0 0.00 0.00 0.00 87 1017.1
20260906044424 73 360 1.0 4.0 0.00 0.00 0.00 87 1016.9
20260906043932 73 15 1.0 4.0 0.00 0.00 0.00 87 1016.9
20260906043438 73 11 1.0 3.0 0.00 0.00 0.00 87 1016.8
20260906042929 73 360 1.0 6.0 0.00 0.00 0.00 86 1016.8
20260906042418 73 20 2.0 6.0 0.00 0.00 0.00 86 1016.6
20260906041950 73 360 1.0 3.0 0.00 0.00 0.00 86 1016.6
20260906041440 73 29 1.0 3.0 0.00 0.00 0.00 86 1016.4
20260906040951 73 19 1.0 5.0 0.00 0.00 0.00 86 1016.4
20260906040417 73 19 1.0 5.0 0.00 0.00 0.00 86 1016.4
20260906035924 73 13 1.0 5.0 0.00 0.00 0.00 85 1016.4
20260906035430 73 17 2.0 5.0 0.00 0.00 0.00 85 1016.3
20260906034917 73 22 0.0 10.0 0.00 0.00 0.00 85 1016.3
20260906034430 73 11 2.0 10.0 0.00 0.00 0.00 85 1016.2
20260906033941 73 17 1.0 3.0 0.00 0.00 0.00 85 1016.2
20260906033446 73 24 0.0 4.0 0.00 0.00 0.00 85 1016.2
20260906032915 73 13 2.0 4.0 0.00 0.00 0.00 85 1016.3
20260906032424 73 14 1.0 6.0 0.00 0.00 0.00 85 1016.3
20260906031915 73 23 2.0 6.0 0.00 0.00 0.00 85 1016.4
20260906031419 73 19 1.0 5.0 0.00 0.00 0.00 85 1016.4
20260906030955 73 23 1.0 5.0 0.00 0.00 0.00 85 1016.4
20260906030421 73 15 2.0 5.0 0.00 0.00 0.00 85 1016.3
20260906025950 73 24 1.0 6.0 0.00 0.00 0.00 85 1016.3
20260906025419 73 13 1.0 8.0 0.00 0.00 0.00 84 1016.3
20260906024929 73 11 2.0 8.0 0.00 0.00 0.00 85 1016.4
20260906024418 73 11 0.0 8.0 0.00 0.00 0.00 85 1016.5
20260906023929 73 28 2.0 8.0 0.00 0.00 0.00 84 1016.4
20260906023434 73 10 2.0 11.0 0.00 0.00 0.00 85 1016.3
20260906022947 73 12 2.0 11.0 0.00 0.00 0.00 85 1016.3
20260906022429 73 14 2.0 5.0 0.00 0.00 0.00 85 1016.3
20260906021918 73 11 2.0 9.0 0.00 0.00 0.00 85 1016.3
20260906021427 73 22 2.0 9.0 0.00 0.00 0.00 85 1016.2
20260906020915 73 360 1.0 8.0 0.00 0.00 0.00 85 1016.2
20260906020421 73 20 2.0 5.0 0.00 0.00 0.00 85 1016.2
20260906015931 73 9 2.0 8.0 0.00 0.00 0.00 85 1016.3
20260906015438 73 10 2.0 8.0 0.00 0.00 0.00 86 1016.4
20260906014927 73 10 1.0 6.0 0.00 0.00 0.00 86 1016.5
20260906014419 73 14 2.0 6.0 0.00 0.00 0.00 86 1016.4
20260906013928 73 13 0.0 4.0 0.00 0.00 0.00 86 1016.4
20260906013416 73 13 1.0 6.0 0.00 0.00 0.00 86 1016.5
20260906012927 73 15 2.0 13.0 0.00 0.00 0.00 86 1016.4
20260906012418 73 11 3.0 13.0 0.00 0.00 0.00 85 1016.4
20260906011926 73 12 3.0 10.0 0.00 0.00 0.00 85 1016.5
20260906011433 73 88 2.0 10.0 0.00 0.00 0.00 85 1016.5
20260906010942 73 360 3.0 10.0 0.00 0.00 0.00 85 1016.4
20260906010429 73 11 4.0 10.0 0.00 0.00 0.00 85 1016.3
20260906005926 73 13 2.0 8.0 0.00 0.00 0.00 85 1016.3
20260906005433 73 36 3.0 6.0 0.00 0.00 0.00 85 1016.2
20260906004921 73 15 4.0 9.0 0.00 0.00 0.00 85 1016.1
20260906004433 73 9 2.0 9.0 0.00 0.00 0.00 85 1016.0
20260906003922 73 65 4.0 9.0 0.00 0.00 0.00 84 1015.9
20260906003431 73 23 3.0 9.0 0.00 0.00 0.00 84 1015.8
20260906002949 73 11 3.0 10.0 0.00 0.00 0.00 85 1015.8
20260906002417 73 360 3.0 10.0 0.00 0.00 0.00 85 1015.8
20260906001950 73 21 4.0 8.0 0.00 0.00 0.00 85 1015.6
20260906001442 73 23 2.0 11.0 0.00 0.00 0.00 84 1015.6
20260906000948 74 34 3.0 11.0 0.00 0.00 0.00 84 1015.6
20260906000435 74 26 3.0 11.0 0.00 0.00 0.00 84 1015.6
20260905235952 74 25 3.0 9.0 0.00 0.00 0.00 83 1015.5
20260905235416 75 12 2.0 10.0 0.00 0.00 0.00 83 1015.5
20260905234924 75 14 3.0 10.0 0.00 0.00 0.00 83 1015.5
20260905234438 76 32 4.0 9.0 0.00 0.00 0.00 82 1015.5
20260905233925 76 360 3.0 5.0 0.00 0.00 0.00 81 1015.4
20260905233431 76 360 2.0 8.0 0.00 0.00 0.00 81 1015.4
20260905232939 77 263 2.0 9.0 0.00 0.00 0.00 80 1015.4
20260905232426 77 11 4.0 9.0 0.00 0.00 0.00 80 1015.3
20260905231915 77 17 4.0 10.0 0.00 0.00 0.00 80 1015.1
20260905231447 78 43 2.0 10.0 0.00 0.00 0.00 80 1015.1
20260905230917 78 88 1.0 9.0 0.00 0.00 0.00 80 1015.0
20260905230426 78 5 2.0 9.0 0.00 0.00 0.00 79 1015.1
20260905225916 78 273 2.0 10.0 0.00 0.00 0.00 79 1015.0
20260905225422 78 34 2.0 16.0 0.00 0.00 0.00 79 1014.9
20260905224932 79 30 4.0 16.0 0.00 0.00 0.00 79 1014.8
20260905224441 79 35 4.0 13.0 0.00 0.00 0.00 77 1014.8
20260905223929 79 46 2.0 13.0 0.00 0.00 0.00 76 1014.9
20260905223417 80 31 3.0 11.0 0.00 0.00 0.00 76 1014.7
20260905222941 80 23 3.0 11.0 0.00 0.00 0.00 75 1014.7
20260905222429 80 34 3.0 8.0 0.00 0.00 0.00 75 1014.6
20260905221938 81 25 2.0 8.0 0.00 0.00 0.00 75 1014.5
20260905221429 81 5 2.0 8.0 0.00 0.00 0.00 75 1014.7
20260905220915 81 34 2.0 10.0 0.00 0.00 0.00 75 1014.7
20260905220451 81 44 3.0 10.0 0.00 0.00 0.00 74 1014.7
20260905215920 81 248 2.0 9.0 0.00 0.00 0.00 74 1014.8
20260905215429 81 60 4.0 8.0 0.00 0.00 0.00 74 1014.8
20260905214918 81 40 2.0 6.0 0.00 0.00 0.00 74 1014.7
20260905214432 81 90 1.0 6.0 0.00 0.00 0.00 74 1014.7
20260905213918 81 15 3.0 8.0 0.00 0.00 0.00 74 1014.7
20260905213421 81 271 1.0 8.0 0.00 0.00 0.00 75 1014.7
20260905212934 81 5 2.0 7.0 0.00 0.00 0.00 75 1014.7
20260905212444 81 28 2.0 5.0 0.00 0.00 0.00 76 1014.8
20260905211951 81 20 2.0 5.0 0.00 0.00 0.00 76 1014.8
20260905211438 81 70 2.0 5.0 0.00 0.00 0.00 77 1014.7
20260905210925 80 263 1.0 3.0 0.00 0.00 0.00 78 1014.8
20260905210434 80 247 1.0 5.0 0.00 0.00 0.00 79 1014.8
20260905205926 79 5 2.0 5.0 0.00 0.00 0.00 80 1014.9
20260905205434 79 360 1.0 4.0 0.00 0.00 0.00 80 1014.9
20260905204923 80 360 2.0 5.0 0.00 0.00 0.00 80 1015.0
20260905204433 79 360 2.0 6.0 0.00 0.00 0.00 79 1015.1
20260905203922 80 17 3.0 6.0 0.00 0.00 0.00 78 1015.0
20260905203425 80 34 1.0 5.0 0.00 0.00 0.00 78 1014.9
20260905202917 80 11 2.0 4.0 0.00 0.00 0.00 78 1014.9
20260905202425 80 76 1.0 6.0 0.00 0.00 0.00 78 1014.9
20260905201932 80 242 2.0 6.0 0.00 0.00 0.00 78 1015.0
20260905201425 80 27 2.0 8.0 0.00 0.00 0.00 77 1015.0
20260905200932 80 25 1.0 8.0 0.00 0.00 0.00 77 1015.0
20260905200422 81 25 2.0 5.0 0.00 0.00 0.00 77 1015.0
20260905195933 81 61 2.0 9.0 0.00 0.00 0.00 76 1015.0
20260905195418 81 11 2.0 9.0 0.00 0.00 0.00 76 1015.0
20260905194925 81 28 1.0 6.0 0.00 0.00 0.00 77 1014.9
20260905194416 81 251 1.0 5.0 0.00 0.00 0.00 76 1015.0
20260905193954 82 224 2.0 8.0 0.00 0.00 0.00 77 1014.9
20260905193417 81 9 3.0 8.0 0.00 0.00 0.00 76 1015.0
20260905192926 82 252 2.0 6.0 0.00 0.00 0.00 76 1015.1
20260905192433 82 51 1.0 6.0 0.00 0.00 0.00 76 1015.1
20260905191940 82 26 2.0 8.0 0.00 0.00 0.00 75 1015.1
20260905191444 82 130 4.0 8.0 0.00 0.00 0.00 75 1015.1
20260905190932 82 253 1.0 11.0 0.00 0.00 0.00 76 1015.2
20260905190440 83 37 3.0 11.0 0.00 0.00 0.00 75 1015.3
20260905185926 83 15 2.0 9.0 0.00 0.00 0.00 75 1015.1
20260905185415 83 242 2.0 9.0 0.00 0.00 0.00 75 1015.0
20260905184923 83 26 3.0 7.0 0.00 0.00 0.00 75 1015.0
20260905184414 83 29 3.0 6.0 0.00 0.00 0.00 75 1015.1
20260905183923 83 231 2.0 6.0 0.00 0.00 0.00 76 1015.1
20260905183431 83 254 3.0 7.0 0.00 0.00 0.00 75 1015.1
20260905182919 83 271 1.0 6.0 0.00 0.00 0.00 75 1015.2
20260905182428 83 9 1.0 5.0 0.00 0.00 0.00 74 1015.1
20260905181916 84 332 2.0 5.0 0.00 0.00 0.00 73 1015.1
20260905181425 84 11 1.0 6.0 0.00 0.00 0.00 74 1015.1
20260905180913 84 5 2.0 6.0 0.00 0.00 0.00 73 1015.0
20260905180421 84 5 1.0 6.0 0.00 0.00 0.00 74 1015.0
20260905175928 84 10 1.0 6.0 0.00 0.00 0.00 75 1015.0
20260905175438 84 23 3.0 5.0 0.00 0.00 0.00 74 1015.0
20260905174947 84 69 2.0 6.0 0.00 0.00 0.00 73 1014.9
20260905174416 84 336 2.0 6.0 0.00 0.00 0.00 73 1015.0
20260905173925 85 15 1.0 6.0 0.00 0.00 0.00 73 1015.0
20260905173413 84 101 2.0 6.0 0.00 0.00 0.00 74 1014.9
20260905172938 84 31 2.0 6.0 0.00 0.00 0.00 74 1015.0
20260905172424 84 62 2.0 5.0 0.00 0.00 0.00 74 1015.0
20260905171912 84 32 2.0 5.0 0.00 0.00 0.00 75 1015.0
20260905171420 84 109 2.0 6.0 0.00 0.00 0.00 75 1015.0
20260905170927 84 68 1.0 6.0 0.00 0.00 0.00 74 1015.0
20260905170435 84 50 2.0 9.0 0.00 0.00 0.00 75 1015.0
20260905165925 84 11 2.0 9.0 0.00 0.00 0.00 74 1014.9
20260905165435 85 355 2.0 6.0 0.00 0.00 0.00 73 1015.1
20260905164944 85 40 2.0 6.0 0.00 0.00 0.00 73 1015.1
20260905164432 85 5 1.0 5.0 0.00 0.00 0.00 75 1015.2
20260905163921 84 348 2.0 5.0 0.00 0.00 0.00 74 1015.2
20260905163426 85 316 3.0 8.0 0.00 0.00 0.00 73 1015.1
20260905162918 85 42 2.0 8.0 0.00 0.00 0.00 74 1015.1
20260905162426 84 107 1.0 8.0 0.00 0.00 0.00 75 1015.0
20260905161912 84 56 3.0 8.0 0.00 0.00 0.00 75 1015.1
20260905161425 84 311 3.0 5.0 0.00 0.00 0.00 74 1015.1
20260905160914 84 81 2.0 5.0 0.00 0.00 0.00 75 1015.1
20260905160451 83 30 2.0 6.0 0.00 0.00 0.00 76 1015.1
20260905155941 83 323 1.0 6.0 0.00 0.00 0.00 78 1015.0
20260905155427 83 5 1.0 6.0 0.00 0.00 0.00 78 1015.0
20260905154917 82 91 1.0 6.0 0.00 0.00 0.00 78 1015.0
20260905154427 82 331 1.0 4.0 0.00 0.00 0.00 79 1015.0
20260905153915 81 48 2.0 5.0 0.00 0.00 0.00 80 1015.0
20260905153448 81 290 1.0 7.0 0.00 0.00 0.00 81 1015.0